Location: Maddington
(51.2000°N, 1.9167°W)
Time: 16:30:52
(UTC+00:00)

Cosmos 1125 Rocket - Pass Details

Date: 22 June 2021
Orbit: 757 x 780 km, 74.0° (Epoch: 28 July)

Event Time Altitude Azimuth Distance (km) Brightness Sun altitude
Rises 01:30:23 0° 337° (NNW) 3,245 7.5 -13.3°
Reaches altitude 10° 01:32:48 10° 341° (NNW) 2,318 6.8 -13.2°
Maximum altitude 01:38:00 58° 61° (ENE) 897 4.1 -12.9°
Drops below altitude 10° 01:43:12 10° 141° (SE) 2,319 5.7 -12.6°
Sets 01:45:37 0° 145° (SE) 3,245 6.4 -12.4°
